User: anonymous   Login
Location: Eimen
(51.8766°N, 9.7806°E)
Time: 00:00:13
(UTC+00:00)
Language:

Cosmos 1190 Rocket - Orbit

View from above orbital plane
View from above orbital plane
View from above satellite
View from above satellite

Ground track
Ground track

The orbit data is extracted from the following two-line orbital elements,

1 11870U 80056B   24194.33647409  .00000462  00000-0  16219-3 0  9996
2 11870  74.0528 144.0853 0016260 179.1569 180.9615 14.37706547281873
Epoch (UTC): 12 July 2024 08:04:31
Eccentricity: 0.0016260
inclination: 74.0528°
perigee height: 754 km
apogee height: 778 km
right ascension of ascending node: 144.0853°
argument of perigee: 179.1569°
revolutions per day: 14.37706547
mean anomaly at epoch: 180.9615°
orbit number at epoch: 28187

The dashed part of the orbit path shows where the satellite is in the earth's shadow,  

DLR